DLH3HJ EDDM-EDDF

Flight info

Callsign DLH3HJ
Flight time N/A
Altitude 24000
Route GIVMI6Q/08L GIVMI Y101 ERNAS T161 DEBHI DEBHI1C
Aircraft A320/M-SDE3FGHIRWY/LB1

Departure

Time 2026-05-01 10:28
Airport Munich Airport (EDDM)

Arrival

Time N/A
Airport Frankfurt Main Airport (EDDF)
Time Latitude Longitude Altitude Speed Heading
2026-05-01 09:56 48.35319 11.79760 1486 ft 0 kts 83°
2026-05-01 10:15 48.35319 11.79753 1485 ft 3 kts 83°
2026-05-01 10:16 48.35316 11.79713 1480 ft 4 kts 83°
2026-05-01 10:16 48.35313 11.79679 1472 ft 3 kts 83°
2026-05-01 10:16 48.35287 11.79621 1481 ft 4 kts
2026-05-01 10:17 48.35263 11.79623 1480 ft 3 kts 353°
2026-05-01 10:17 48.35260 11.79624 1479 ft 0 kts 353°
2026-05-01 10:20 48.35290 11.79614 1480 ft 10 kts 339°
2026-05-01 10:20 48.35347 11.79555 1485 ft 9 kts 324°
2026-05-01 10:20 48.35402 11.79531 1485 ft 8 kts 353°
2026-05-01 10:21 48.35455 11.79522 1484 ft 9 kts 353°
2026-05-01 10:21 48.35628 11.79491 1482 ft 12 kts 354°
2026-05-01 10:21 48.35704 11.79478 1483 ft 9 kts 354°
2026-05-01 10:22 48.35808 11.79461 1478 ft 6 kts 353°
2026-05-01 10:22 48.35898 11.79404 1480 ft 12 kts 300°
2026-05-01 10:23 48.35967 11.79337 1485 ft 12 kts 351°
2026-05-01 10:23 48.36087 11.79263 1479 ft 12 kts 274°
2026-05-01 10:23 48.36075 11.79094 1476 ft 21 kts 263°
2026-05-01 10:24 48.36036 11.78567 1485 ft 25 kts 263°
2026-05-01 10:24 48.35998 11.78092 1483 ft 21 kts 263°
2026-05-01 10:25 48.35975 11.77704 1485 ft 12 kts 292°
2026-05-01 10:25 48.36104 11.77663 1485 ft 8 kts 14°
2026-05-01 10:26 48.36147 11.77705 1483 ft 7 kts 47°
2026-05-01 10:26 48.36183 11.77773 1474 ft 10 kts 52°
2026-05-01 10:26 48.36317 11.78048 1479 ft 17 kts 55°
2026-05-01 10:27 48.36391 11.78246 1482 ft 12 kts 81°
2026-05-01 10:27 48.36473 11.79315 1485 ft 112 kts 83°
2026-05-01 10:28 48.36582 11.80732 1601 ft 153 kts 83°
2026-05-01 10:28 48.36850 11.83941 3091 ft 160 kts 84°
2026-05-01 10:28 48.37167 11.85649 3490 ft 186 kts 56°
2026-05-01 10:29 48.39922 11.87085 4206 ft 246 kts
2026-05-01 10:29 48.41683 11.86578 4751 ft 274 kts 334°
2026-05-01 10:30 48.44353 11.82232 6549 ft 287 kts 310°
2026-05-01 10:30 48.46930 11.77546 8290 ft 294 kts 313°
2026-05-01 10:31 48.49615 11.72814 9988 ft 301 kts 314°
2026-05-01 10:31 48.52372 11.67977 11597 ft 306 kts 313°
2026-05-01 10:32 48.55167 11.63046 13178 ft 312 kts 314°
2026-05-01 10:32 48.56585 11.60542 13949 ft 315 kts 313°
2026-05-01 10:32 48.59528 11.55339 14618 ft 349 kts 313°
2026-05-01 10:33 48.62810 11.49536 15399 ft 371 kts 313°
2026-05-01 10:33 48.66184 11.43530 16656 ft 378 kts 313°
2026-05-01 10:34 48.67889 11.40473 17284 ft 382 kts 313°
2026-05-01 10:34 48.69648 11.37445 17868 ft 383 kts 318°
2026-05-01 10:34 48.71693 11.34863 18430 ft 384 kts 329°
2026-05-01 10:35 48.76170 11.30363 19498 ft 389 kts 330°
2026-05-01 10:35 48.78430 11.28078 20027 ft 392 kts 329°
2026-05-01 10:35 48.80701 11.25773 20564 ft 394 kts 329°
2026-05-01 10:35 48.82980 11.23456 21076 ft 396 kts 329°
2026-05-01 10:36 48.87134 11.17865 22129 ft 406 kts 311°
2026-05-01 10:36 48.88728 11.14295 22678 ft 410 kts 302°
2026-05-01 10:36 48.89921 11.10340 23262 ft 414 kts 292°
2026-05-01 10:37 48.90677 11.06114 23869 ft 416 kts 283°
2026-05-01 10:37 48.90794 10.97319 24915 ft 419 kts 263°
2026-05-01 10:37 48.90148 10.93013 25467 ft 418 kts 253°
2026-05-01 10:38 48.89052 10.88927 26037 ft 417 kts 244°
2026-05-01 10:38 48.87538 10.85181 26622 ft 415 kts 234°
2026-05-01 10:38 48.85652 10.81878 27217 ft 413 kts 224°
2026-05-01 10:38 48.83454 10.79116 27832 ft 409 kts 214°
2026-05-01 10:39 48.81009 10.76968 28459 ft 404 kts 204°
2026-05-01 10:39 48.78392 10.75487 29106 ft 399 kts 194°
2026-05-01 10:39 48.75696 10.74712 29765 ft 392 kts 183°
2026-05-01 10:39 48.73003 10.74653 30433 ft 383 kts 173°
2026-05-01 10:40 48.70408 10.75292 31004 ft 374 kts 161°
2026-05-01 10:40 48.67992 10.76590 31581 ft 363 kts 150°
2026-05-01 10:40 48.65846 10.78472 32145 ft 351 kts 139°